�������l�o���
Date,Time,MP-1(��Sv/h),MP-2(��Sv/h),MP-3(��Sv/h),MP-4(��Sv/h),MP-5(��Sv/h),MP-6(��Sv/h),MP-7(��Sv/h),MP-8(��Sv/h),����,����(m/s),���J
2017/04/26,00:00,1.036,1.681,1.114,2.005,1.385,0.548,1.004,0.926,��,9.2,��
2017/04/26,00:10,1.037,1.680,1.112,2.004,1.387,0.549,1.006,0.927,��쐼,8.9,��
2017/04/26,00:20,1.035,1.677,1.114,2.008,1.386,0.548,1.005,0.927,��쐼,7.9,��
2017/04/26,00:30,1.036,1.681,1.111,2.007,1.387,0.548,1.004,0.926,��쐼,8.8,��
2017/04/26,00:40,1.036,1.682,1.111,2.004,1.388,0.547,1.004,0.928,��쐼,7.3,��
2017/04/26,00:50,1.035,1.683,1.114,2.007,1.388,0.548,1.004,0.926,��,7.5,��
2017/04/26,01:00,1.033,1.680,1.113,2.008,1.388,0.550,1.002,0.927,��,7.7,��
2017/04/26,01:10,1.035,1.680,1.112,2.005,1.388,0.549,1.005,0.929,��쐼,7.4,��
2017/04/26,01:20,1.035,1.680,1.113,2.005,1.388,0.549,1.004,0.928,��,8.8,��
2017/04/26,01:30,1.035,1.681,1.114,2.004,1.388,0.548,1.002,0.926,��쐼,8.5,��
2017/04/26,01:40,1.035,1.681,1.111,2.006,1.387,0.549,1.003,0.926,��쐼,7.3,��
2017/04/26,01:50,1.033,1.680,1.114,2.004,1.388,0.548,1.003,0.928,��쐼,7.5,��
2017/04/26,02:00,1.036,1.682,1.114,2.006,1.385,0.549,1.004,0.927,��쐼,6.9,��
2017/04/26,02:10,1.037,1.679,1.113,2.004,1.389,0.548,1.003,0.929,��쐼,5.6,��
2017/04/26,02:20,1.034,1.680,1.114,2.006,1.388,0.550,1.002,0.928,��쐼,4.7,��
2017/04/26,02:30,1.036,1.678,1.112,2.006,1.388,0.547,1.002,0.927,��,4.7,��
2017/04/26,02:40,1.034,1.683,1.113,2.005,1.389,0.549,1.004,0.928,��,4.9,��
2017/04/26,02:50,1.036,1.680,1.114,2.006,1.386,0.549,1.003,0.927,��쐼,4.7,��
2017/04/26,03:00,1.035,1.680,1.113,2.004,1.387,0.550,1.002,0.927,��,3.4,��
2017/04/26,03:10,1.034,1.677,1.112,2.005,1.389,0.549,1.003,0.925,��쐼,4.4,��
2017/04/26,03:20,1.037,1.674,1.113,2.004,1.388,0.549,1.001,0.927,��쐼,5.4,��
2017/04/26,03:30,1.035,1.678,1.114,2.005,1.387,0.550,1.003,0.927,��쐼,4.8,��
2017/04/26,03:40,1.036,1.680,1.112,2.004,1.388,0.549,1.002,0.924,��,4.8,��
2017/04/26,03:50,1.035,1.680,1.112,2.003,1.387,0.548,1.005,0.926,��,5.3,��
2017/04/26,04:00,1.034,1.680,1.112,2.002,1.386,0.549,1.004,0.928,��,5.5,��
2017/04/26,04:10,1.034,1.678,1.113,2.004,1.386,0.550,1.003,0.927,��쐼,5.2,��
2017/04/26,04:20,1.034,1.677,1.111,2.005,1.385,0.548,1.005,0.927,��쐼,4.8,��
2017/04/26,04:30,1.036,1.680,1.113,2.005,1.384,0.547,1.005,0.927,��쐼,3.9,��
2017/04/26,04:40,1.035,1.679,1.113,2.003,1.387,0.549,1.004,0.927,��쐼,4.5,��
2017/04/26,04:50,1.034,1.678,1.113,2.006,1.384,0.550,1.004,0.926,��쐼,5.2,��
2017/04/26,05:00,1.034,1.676,1.113,2.005,1.384,0.549,1.004,0.925,��,4.8,��
2017/04/26,05:10,1.034,1.678,1.113,2.004,1.383,0.548,1.003,0.928,��쐼,5.3,��
2017/04/26,05:20,1.034,1.676,1.113,2.002,1.385,0.549,1.003,0.927,��쐼,5.8,��
2017/04/26,05:30,1.036,1.677,1.115,2.004,1.386,0.548,1.004,0.927,��쐼,7.1,��
2017/04/26,05:40,1.035,1.676,1.115,2.004,1.387,0.546,1.006,0.928,��쐼,6.8,��
2017/04/26,05:50,1.035,1.677,1.114,2.002,1.386,0.548,1.003,0.929,��쐼,5.4,��
2017/04/26,06:00,1.034,1.676,1.112,2.005,1.387,0.547,1.003,0.928,��,5.6,��
2017/04/26,06:10,1.035,1.681,1.114,2.004,1.387,0.548,1.006,0.927,��,5.5,��
2017/04/26,06:20,1.034,1.678,1.113,2.004,1.387,0.547,1.003,0.925,��,5.2,��
2017/04/26,06:30,1.035,1.677,1.112,2.002,1.389,0.546,1.004,0.929,��,6.2,��
2017/04/26,06:40,1.036,1.678,1.115,2.004,1.387,0.547,1.003,0.928,��,6.6,��
2017/04/26,06:50,1.033,1.679,1.117,2.004,1.388,0.546,1.004,0.928,��쐼,6.8,��
2017/04/26,07:00,1.037,1.679,1.116,2.008,1.388,0.548,1.004,0.928,��쐼,6.7,��
2017/04/26,07:10,1.036,1.681,1.116,2.005,1.387,0.548,1.002,0.929,��,5.8,��
2017/04/26,07:20,1.038,1.681,1.116,2.009,1.384,0.547,1.005,0.928,��,5.5,��
2017/04/26,07:30,1.036,1.682,1.114,2.009,1.386,0.547,1.004,0.929,��쐼,5.8,��
2017/04/26,07:40,1.039,1.681,1.116,2.007,1.384,0.548,1.003,0.927,��,6.5,��
2017/04/26,07:50,1.038,1.685,1.114,2.007,1.389,0.547,1.003,0.927,��,6.1,��
2017/04/26,08:00,1.041,1.682,1.116,2.008,1.389,0.548,1.002,0.928,��쐼,6.5,��
2017/04/26,08:10,1.039,1.682,1.117,2.010,1.388,0.549,1.003,0.929,��쐼,7.5,��
2017/04/26,08:20,1.039,1.680,1.118,2.012,1.388,0.548,1.003,0.928,��쐼,6.9,��
2017/04/26,08:30,1.039,1.678,1.116,2.011,1.389,0.548,1.003,0.928,��쐼,5.3,��
2017/04/26,08:40,1.037,1.679,1.116,2.010,1.385,0.547,1.003,0.928,�쐼,5.5,��
2017/04/26,08:50,1.034,1.674,1.117,2.012,1.388,0.547,1.005,0.927,��쐼,6.5,��
2017/04/26,09:00,1.037,1.677,1.115,2.009,1.387,0.549,1.004,0.926,��쐼,6.3,��
2017/04/26,09:10,1.035,1.671,1.116,2.012,1.389,0.549,1.003,0.926,��쐼,7.8,��
2017/04/26,09:20,1.036,1.676,1.116,2.012,1.385,0.549,1.005,0.928,��쐼,7.4,��
2017/04/26,09:30,1.035,1.673,1.115,2.011,1.388,0.549,1.004,0.926,��쐼,9.6,��
2017/04/26,09:40,1.039,1.674,1.115,2.011,1.385,0.548,1.004,0.927,�쐼,8.1,��
2017/04/26,09:50,1.036,1.674,1.117,2.013,1.388,0.549,1.006,0.927,��쐼,6.7,��
2017/04/26,10:00,1.037,1.674,1.116,2.010,1.386,0.548,1.005,0.926,��쐼,6.6,��
2017/04/26,10:10,1.038,1.670,1.119,2.012,1.388,0.549,1.005,0.927,��쐼,5.7,��
2017/04/26,10:20,1.039,1.675,1.116,2.014,1.389,0.549,1.006,0.925,��쐼,6.5,��
2017/04/26,10:30,1.039,1.674,1.118,2.012,1.391,0.549,1.005,0.927,��쐼,6.1,��
2017/04/26,10:40,1.039,1.676,1.117,2.013,1.389,0.546,1.006,0.925,��쐼,6.3,��
2017/04/26,10:50,1.039,1.677,1.119,2.014,1.388,0.548,1.005,0.926,��쐼,4.3,��
2017/04/26,11:00,1.039,1.678,1.118,2.012,1.389,0.548,1.005,0.926,��쐼,6.1,��
2017/04/26,11:10,1.043,1.677,1.118,2.013,1.387,0.548,1.006,0.927,��쐼,6.5,��
2017/04/26,11:20,1.042,1.676,1.118,2.013,1.388,0.549,1.005,0.927,��쐼,5.6,��
2017/04/26,11:30,1.042,1.674,1.119,2.015,1.388,0.549,1.007,0.928,��쐼,5.8,��
2017/04/26,11:40,1.041,1.677,1.117,2.014,1.392,0.549,1.005,0.926,��,5.7,��
2017/04/26,11:50,1.041,1.678,1.119,2.012,1.390,0.549,1.005,0.926,��,8.9,��
2017/04/26,12:00,1.042,1.679,1.120,2.014,1.390,0.549,1.006,0.927,��쓌,8.9,��
2017/04/26,12:10,1.041,1.677,1.119,2.018,1.392,0.550,1.006,0.928,��,9.6,��
2017/04/26,12:20,1.039,1.677,1.116,2.014,1.392,0.548,1.006,0.926,��쓌,11.9,��
2017/04/26,12:30,1.038,1.679,1.118,2.015,1.393,0.549,1.004,0.926,��쓌,13.1,��
2017/04/26,12:40,1.039,1.677,1.117,2.015,1.390,0.550,1.005,0.928,��쓌,10.9,��
2017/04/26,12:50,1.037,1.678,1.118,2.013,1.392,0.550,1.005,0.927,��쓌,12.5,��
2017/04/26,13:00,1.039,1.676,1.116,2.018,1.391,0.550,1.005,0.927,��,12.2,��
2017/04/26,13:10,1.040,1.677,1.115,2.014,1.390,0.549,1.006,0.926,��쓌,12.4,��
2017/04/26,13:20,1.037,1.676,1.117,2.016,1.390,0.549,1.005,0.926,��,10.5,��
2017/04/26,13:30,1.039,1.677,1.116,2.012,1.390,0.549,1.005,0.928,��,9.7,��
2017/04/26,13:40,1.040,1.676,1.116,2.015,1.391,0.551,1.006,0.926,��쓌,15.0,��
2017/04/26,13:50,1.038,1.674,1.119,2.017,1.390,0.548,1.005,0.926,��,11.7,��
2017/04/26,14:00,1.039,1.675,1.116,2.014,1.389,0.550,1.005,0.926,��쓌,11.3,��
2017/04/26,14:10,1.037,1.676,1.116,2.016,1.393,0.549,1.003,0.928,��,9.7,��
2017/04/26,14:20,1.039,1.673,1.120,2.015,1.391,0.549,1.007,0.927,��,10.2,��
2017/04/26,14:30,1.042,1.676,1.121,2.014,1.391,0.549,1.005,0.926,��,9.4,��
2017/04/26,14:40,1.041,1.677,1.119,2.019,1.394,0.550,1.008,0.926,��쓌,9.5,��
2017/04/26,14:50,1.041,1.677,1.118,2.017,1.391,0.550,1.008,0.928,��,8.4,��
2017/04/26,15:00,1.041,1.679,1.121,2.016,1.390,0.550,1.006,0.928,��,5.6,��
2017/04/26,15:10,1.040,1.677,1.120,2.017,1.392,0.550,1.009,0.929,��쐼,7.3,��
2017/04/26,15:20,1.042,1.678,1.120,2.019,1.393,0.551,1.008,0.929,��,6.1,��
2017/04/26,15:30,1.041,1.678,1.120,2.015,1.392,0.550,1.006,0.927,��,7.8,��
2017/04/26,15:40,1.041,1.679,1.119,2.016,1.393,0.550,1.008,0.927,��,7.5,��
2017/04/26,15:50,1.041,1.679,1.121,2.015,1.391,0.549,1.006,0.928,��,7.0,��
2017/04/26,16:00,1.041,1.679,1.120,2.016,1.391,0.552,1.007,0.929,��,6.3,��
2017/04/26,16:10,1.042,1.678,1.119,2.018,1.393,0.549,1.007,0.927,��,6.6,��
2017/04/26,16:20,1.042,1.680,1.120,2.016,1.391,0.550,1.007,0.928,��,6.0,��
2017/04/26,16:30,1.042,1.677,1.120,2.014,1.394,0.551,1.009,0.928,��,5.2,��
2017/04/26,16:40,1.039,1.681,1.122,2.017,1.391,0.550,1.006,0.928,��,4.9,��
2017/04/26,16:50,1.042,1.677,1.121,2.017,1.392,0.550,1.007,0.928,��,5.5,��
2017/04/26,17:00,1.042,1.681,1.122,2.018,1.391,0.551,1.007,0.931,��,6.4,��
2017/04/26,17:10,1.042,1.676,1.121,2.017,1.391,0.552,1.006,0.928,��쐼,6.2,��
2017/04/26,17:20,1.045,1.681,1.125,2.015,1.392,0.553,1.008,0.930,��,7.1,��
2017/04/26,17:30,1.044,1.684,1.120,2.019,1.393,0.550,1.005,0.929,��쐼,6.1,��
2017/04/26,17:40,1.044,1.682,1.123,2.017,1.392,0.552,1.006,0.930,�쐼,5.6,��
2017/04/26,17:50,1.043,1.683,1.123,2.020,1.393,0.550,1.007,0.930,��쐼,5.9,��
2017/04/26,18:00,1.046,1.684,1.123,2.019,1.394,0.551,1.006,0.930,��쐼,5.6,��
2017/04/26,18:10,1.044,1.684,1.122,2.016,1.392,0.552,1.006,0.931,��쐼,5.6,��
2017/04/26,18:20,1.044,1.682,1.122,2.019,1.393,0.551,1.008,0.930,�쐼,5.9,��
2017/04/26,18:30,1.043,1.682,1.123,2.019,1.391,0.552,1.006,0.932,�쐼,4.9,��
2017/04/26,18:40,1.045,1.682,1.123,2.019,1.389,0.552,1.006,0.931,��,3.6,��
2017/04/26,18:50,1.043,1.683,1.125,2.017,1.393,0.551,1.007,0.930,��,4.2,��
2017/04/26,19:00,1.042,1.684,1.122,2.018,1.395,0.552,1.008,0.930,��,3.9,��
2017/04/26,19:10,1.045,1.683,1.124,2.018,1.393,0.554,1.005,0.930,���k��,3.8,��
2017/04/26,19:20,1.044,1.683,1.120,2.017,1.393,0.553,1.008,0.931,��,3.9,�L
2017/04/26,19:30,1.045,1.681,1.122,2.019,1.397,0.553,1.009,0.930,��,3.7,�L
2017/04/26,19:40,1.045,1.679,1.120,2.014,1.388,0.554,1.008,0.931,��,3.8,�L
2017/04/26,19:50,1.036,1.660,1.109,2.000,1.370,0.552,1.001,0.927,���쐼,4.1,�L
2017/04/26,20:00,1.031,1.653,1.106,1.995,1.367,0.550,0.999,0.924,��쐼,4.9,�L
2017/04/26,20:10,1.028,1.650,1.106,1.991,1.362,0.550,0.997,0.925,�쐼,5.0,�L
2017/04/26,20:20,1.028,1.646,1.103,1.991,1.358,0.550,0.998,0.924,�쐼,5.5,�L
2017/04/26,20:30,1.027,1.649,1.103,1.990,1.360,0.551,0.998,0.925,�쐼,5.8,��
2017/04/26,20:40,1.026,1.646,1.104,1.989,1.360,0.549,1.000,0.924,�쐼,5.2,��
2017/04/26,20:50,1.026,1.647,1.102,1.988,1.357,0.551,1.000,0.923,�쐼,6.2,��
2017/04/26,21:00,1.026,1.647,1.103,1.986,1.362,0.550,0.998,0.926,�쐼,5.5,��
2017/04/26,21:10,1.025,1.649,1.103,1.989,1.362,0.550,0.999,0.926,�쐼,4.9,��
2017/04/26,21:20,1.023,1.646,1.102,1.986,1.362,0.549,0.999,0.924,�쐼,4.6,��
2017/04/26,21:30,1.024,1.652,1.103,1.988,1.362,0.549,0.999,0.926,�쐼,2.8,��
2017/04/26,21:40,1.023,1.647,1.101,1.987,1.363,0.548,0.999,0.925,�쐼,1.1,��
2017/04/26,21:50,1.024,1.649,1.099,1.985,1.359,0.549,1.001,0.925,�쐼,0.9,��
2017/04/26,22:00,1.021,1.647,1.099,1.986,1.360,0.548,1.000,0.926,���쐼,1.5,�L
2017/04/26,22:10,1.022,1.646,1.101,1.987,1.361,0.547,1.001,0.925,��,1.7,�L
2017/04/26,22:20,1.022,1.645,1.101,1.989,1.358,0.547,0.999,0.927,���k��,2.2,�L
2017/04/26,22:30,1.023,1.649,1.098,1.985,1.361,0.548,1.001,0.924,��,0.6,�L
2017/04/26,22:40,1.022,1.647,1.101,1.988,1.358,0.547,1.000,0.924,�k�k��,1.2,�L
2017/04/26,22:50,1.023,1.645,1.102,1.985,1.360,0.548,1.002,0.925,�k�k��,2.2,��
2017/04/26,23:00,1.022,1.647,1.101,1.984,1.361,0.547,0.999,0.924,�k��,3.7,��
2017/04/26,23:10,1.022,1.645,1.102,1.989,1.360,0.548,1.000,0.928,�k��,5.4,�L
2017/04/26,23:20,1.021,1.646,1.098,1.988,1.358,0.547,1.002,0.925,�k��,5.2,�L
2017/04/26,23:30,1.023,1.646,1.101,1.984,1.358,0.547,0.999,0.927,�k��,5.0,�L
2017/04/26,23:40,1.021,1.646,1.100,1.988,1.358,0.548,1.000,0.926,�k��,5.6,�L
2017/04/26,23:50,1.024,1.644,1.099,1.986,1.358,0.546,0.999,0.924,�k�k��,4.0,�L
